Theta_e
294 295 295 295 295 296 296 296 296 296 296 296 298 299 300 301 302 303 301 302 303 304 304 305 306 307 307 307 307 306 306 306 306 306 306 305 305 305 303 302 303 303 303 301 301 301 301 301 301 301 299 299 299 298 297 297 297 296 296 296 296 294 294 294 293 290 289 288 289 292 290 294 294 295 299 297 295 294 299 299 296 297 296 296 297
294 295 294 294 295 295 295 295 296 295 295 296 297 298 298 299 300 298 300 302 302 303 304 304 305 305 306 306 306 306 305 305 305 305 305 304 304 304 303 302 302 303 303 302 301 302 301 300 300 300 299 300 299 298 298 297 297 296 295 296 296 294 294 295 292 292 291 289 291 289 291 292 298 290 300 297 295 291 296 296 296 298 298 296 296
293 292 293 294 295 294 294 295 295 295 296 296 296 296 296 296 296 299 300 300 300 302 303 303 303 304 304 304 304 304 304 304 304 304 305 305 304 304 303 302 302 302 302 302 301 301 300 300 300 300 299 298 298 299 298 297 297 297 296 296 296 295 293 294 292 291 291 290 289 290 292 292 294 294 291 294 293 292 295 294 295 294 294 292 292
295 293 293 293 292 294 294 294 295 294 294 295 295 294 295 295 295 295 297 297 299 300 301 302 302 302 302 302 302 303 303 303 303 304 304 304 304 304 304 303 302 303 303 302 301 301 301 300 300 299 298 298 298 298 298 298 297 296 296 296 296 296 295 293 294 292 290 293 289 292 291 293 288 288 288 288 292 290 292 289 288 290 290 291 290
295 294 293 293 292 293 293 293 293 293 293 294 294 294 294 294 294 295 296 296 297 298 299 299 301 301 302 302 302 302 303 303 303 303 303 304 304 304 304 303 302 302 303 303 300 301 301 301 301 299 298 298 298 298 297 296 297 296 296 296 295 295 295 294 293 289 292 293 289 287 287 289 286 286 289 292 287 288 287 288 288 288 288 287 288
296 295 294 294 293 292 292 292 293 293 293 293 294 294 294 293 294 294 295 297 296 297 299 299 301 301 301 302 302 302 302 303 303 303 303 303 303 303 303 302 302 302 302 302 302 302 301 301 301 300 299 299 299 298 297 297 296 296 296 295 295 294 294 293 291 291 293 293 291 288 288 291 289 287 287 288 292 288 288 287 287 287 288 290 289
291 294 294 294 295 294 294 293 293 293 293 295 293 293 293 295 294 296 296 297 296 297 297 298 299 300 301 301 301 301 301 302 302 303 302 302 302 302 302 302 302 302 302 302 302 301 301 301 301 301 300 299 299 298 297 297 297 297 297 296 295 294 294 294 292 291 292 291 287 289 292 287 289 292 287 287 288 289 291 289 288 287 287 288 289
288 288 289 289 289 290 291 293 294 295 294 293 294 294 294 293 294 295 294 295 296 297 298 298 299 298 300 300 301 301 301 301 302 302 303 303 303 302 303 302 302 301 301 301 301 301 301 301 301 301 301 300 300 299 298 298 297 297 297 296 295 295 294 293 291 291 290 289 291 290 286 288 286 282 283 286 288 289 288 287 291 288 289 285 284
285 285 285 285 285 286 288 289 290 291 292 294 294 294 295 295 295 294 294 294 297 297 297 297 297 297 298 299 300 300 301 302 303 303 302 302 303 302 302 302 301 301 300 300 300 300 300 300 300 301 300 297 296 297 297 297 299 298 296 296 295 295 294 293 293 292 289 290 288 286 288 286 287 287 287 288 291 294 291 285 289 287 287 288 286
284 284 284 285 285 286 286 286 286 287 287 288 290 291 292 293 294 295 296 297 296 296 295 296 298 299 298 298 299 300 301 302 298 298 299 302 302 302 301 301 301 300 299 298 298 298 299 299 299 296 295 294 294 295 295 296 296 299 299 296 296 295 295 294 293 293 292 290 290 289 287 289 289 289 290 291 291 285 286 287 289 284 286 286 286
284 284 284 285 286 286 286 286 286 286 286 286 287 287 288 289 289 290 290 290 293 294 296 297 298 298 299 299 299 300 301 301 296 298 298 298 300 301 301 300 300 299 299 298 298 297 297 297 298 295 294 293 294 294 295 295 295 295 296 296 296 298 296 295 294 293 292 292 290 289 290 290 289 289 290 290 286 290 289 289 288 285 288 288 288
284 284 284 285 286 286 286 286 286 286 287 286 285 285 286 286 287 287 287 288 288 288 290 293 294 295 297 297 298 298 299 296 297 297 297 298 297 300 300 300 299 299 298 298 298 297 297 296 296 297 297 297 297 296 294 294 294 295 295 294 295 296 297 298 296 293 293 293 289 290 290 291 291 288 288 287 288 287 287 288 288 288 288 288 286
283 284 284 285 285 286 286 286 286 287 287 286 285 285 286 286 286 286 286 286 286 287 289 289 289 289 291 293 293 294 293 295 296 296 296 297 297 297 299 299 298 298 298 297 297 296 295 294 294 295 297 293 294 296 296 294 292 293 294 293 294 295 296 297 297 298 296 295 294 292 292 292 289 289 290 290 290 290 286 285 286 286 289 290 289
283 283 283 284 284 285 286 286 286 287 287 287 287 287 286 286 286 286 286 286 286 286 285 285 286 287 287 288 289 289 290 292 294 295 295 296 296 297 298 297 297 297 296 296 296 295 295 294 294 293 292 292 293 294 295 294 294 293 293 293 294 293 293 295 294 294 295 297 296 294 294 292 293 293 291 290 290 290 288 288 287 286 287 290 287
282 282 282 283 284 284 285 285 285 286 286 287 287 287 287 287 287 287 286 286 285 285 285 285 285 285 285 285 286 287 288 290 292 293 294 295 296 295 296 296 295 295 295 294 295 295 295 294 294 294 292 291 292 292 293 293 293 293 292 292 293 293 293 294 294 295 294 295 296 296 296 294 295 293 290 291 293 294 293 292 290 290 286 282 283
281 282 282 282 283 283 283 284 284 285 286 286 286 286 287 287 287 287 287 287 286 284 284 283 283 284 284 284 285 285 285 288 289 290 292 293 295 294 293 294 293 293 292 292 292 291 292 292 291 291 291 291 291 292 293 292 292 292 291 292 291 291 292 293 295 295 296 296 296 296 295 294 295 291 291 291 290 288 287 287 287 286 287 286 285
280 281 281 282 282 282 282 283 283 284 285 285 285 285 286 286 287 287 287 287 287 286 284 284 283 283 283 283 283 284 285 287 288 290 292 293 293 289 289 288 288 289 290 290 289 289 290 291 291 291 291 291 291 293 294 292 291 292 292 292 292 291 291 291 293 293 294 294 295 295 295 294 296 295 294 294 291 290 288 287 287 287 287 286 282
278 280 280 281 281 282 282 282 282 283 283 283 284 285 286 286 286 287 286 286 286 286 286 286 285 285 285 284 284 284 285 286 287 289 290 291 290 288 287 287 286 287 288 287 286 286 288 288 289 290 290 290 292 293 294 292 291 291 291 291 290 289 290 290 289 289 290 291 292 293 293 293 294 295 294 294 293 291 291 290 289 288 288 288 287
277 277 279 280 281 281 281 281 281 282 282 283 284 284 285 285 286 286 286 287 287 286 286 285 285 284 284 285 285 285 285 286 287 288 289 290 289 287 287 288 287 287 286 286 286 285 286 286 287 289 290 291 293 293 294 291 291 291 291 291 290 290 292 290 289 288 287 287 288 288 289 289 289 290 290 292 292 290 293 294 289 289 289 288 286
276 277 279 280 280 280 280 280 280 281 281 282 283 284 285 284 285 285 286 286 286 285 284 284 284 283 283 283 283 283 284 284 285 287 288 289 290 289 289 288 288 288 286 285 287 287 286 286 287 290 292 292 293 294 293 293 291 291 290 291 291 291 291 289 289 289 289 290 290 289 290 288 287 287 287 289 290 289 291 291 290 291 290 289 286
274 276 278 278 279 279 279 279 280 280 280 281 282 283 284 284 284 285 284 285 284 284 283 283 282 282 281 281 281 282 282 283 283 285 287 288 289 289 288 287 288 288 288 289 288 289 289 288 289 289 291 292 293 293 293 293 292 291 290 291 292 293 290 289 287 287 288 287 287 286 287 285 286 286 287 288 288 289 290 289 289 291 291 289 287
273 275 276 277 277 278 278 278 279 280 280 280 280 281 283 283 284 284 284 284 284 283 283 282 281 281 281 281 280 280 281 282 282 283 285 287 288 289 287 287 289 289 289 289 289 289 290 289 290 289 290 291 292 292 293 293 293 290 290 292 293 292 289 288 288 287 287 287 286 286 285 285 285 285 286 286 287 286 286 284 283 282 280 284 290
271 273 275 275 276 277 277 277 278 279 278 279 279 280 281 281 282 283 283 283 283 282 282 281 281 281 281 280 280 280 280 280 281 282 283 285 287 288 289 289 289 289 288 288 289 289 289 289 288 287 288 289 291 292 292 293 291 291 292 292 292 290 288 288 287 288 287 287 287 287 286 286 286 285 284 283 280 278 278 277 276 277 275 272 271
270 272 273 274 275 276 276 277 277 277 277 277 278 278 279 279 281 282 282 282 282 282 281 281 281 281 280 280 280 279 279 280 280 281 282 284 286 287 289 290 290 288 288 289 289 289 288 288 288 288 288 289 290 291 292 291 291 292 292 292 290 288 288 288 288 288 288 287 287 288 287 287 287 286 284 281 279 277 276 276 274 274 273 272 272
268 270 271 272 273 275 276 276 276 276 276 276 276 277 277 278 278 280 280 281 281 280 280 280 280 280 279 279 279 279 279 279 279 280 281 282 284 286 287 289 290 290 288 288 288 288 288 288 288 287 287 288 289 289 289 289 290 290 290 289 288 288 288 288 288 288 288 288 288 288 288 288 288 287 283 280 278 277 276 275 274 273 273 273 272
266 267 269 270 272 274 275 275 275 276 276 275 275 275 275 276 276 277 278 278 279 279 279 279 279 279 278 278 278 278 278 278 278 279 280 281 282 283 285 285 286 286 286 285 285 286 286 287 286 286 285 285 287 287 286 286 287 288 288 288 288 289 288 288 288 288 288 288 288 288 288 285 282 281 280 280 279 278 277 276 276 276 278 278 276
265 266 267 269 271 273 273 273 274 274 274 274 274 274 274 274 275 275 276 276 276 277 278 278 278 278 278 278 278 278 278 278 278 278 278 279 279 280 281 283 284 285 284 283 282 281 281 281 281 282 281 281 280 280 280 280 281 283 286 288 288 289 288 289 289 288 288 288 288 287 283 281 280 280 280 280 280 279 280 280 279 279 279 278 276
263 264 266 268 270 272 272 273 273 272 273 273 272 272 273 273 273 274 274 275 274 275 275 276 277 278 278 278 278 277 277 278 278 277 277 277 278 278 279 280 281 282 280 279 279 279 279 279 279 278 279 279 278 277 277 276 276 277 278 281 284 285 287 287 287 289 289 288 286 281 280 279 280 280 280 280 280 279 280 280 279 278 278 278 275
263 264 265 267 268 270 270 271 271 272 272 272 272 272 272 272 272 273 274 275 275 275 275 276 277 277 277 277 277 277 278 278 278 280 279 280 279 278 278 278 278 279 280 280 278 278 278 278 278 278 278 277 276 275 275 275 275 275 276 277 279 282 284 286 287 286 284 283 281 280 279 280 279 279 279 279 278 278 279 278 278 278 277 279 277
262 263 264 266 267 268 269 270 270 271 272 271 272 272 275 274 274 273 272 274 275 277 277 276 277 277 277 277 278 277 277 278 281 281 280 281 281 281 281 281 281 280 281 282 280 278 278 277 277 277 276 276 276 275 274 274 274 274 274 274 276 278 281 283 284 282 282 282 281 280 279 279 278 278 279 277 276 276 277 278 277 278 277 275 273
261 262 264 264 266 267 268 268 269 271 271 270 271 270 270 272 274 274 273 273 273 274 276 276 276 277 277 276 278 279 280 280 280 280 281 281 281 281 281 282 282 281 282 279 278 278 277 276 275 275 274 274 273 273 272 272 271 271 271 271 272 274 275 278 278 279 279 280 279 279 279 278 277 278 277 276 275 275 276 276 276 276 276 274 272
260 261 263 264 265 266 267 268 268 269 269 270 269 269 269 268 268 273 273 272 272 272 273 273 274 275 276 276 275 276 278 279 280 280 280 280 281 281 281 282 282 282 282 282 277 276 276 276 274 273 273 272 272 271 271 271 270 270 271 270 270 270 271 273 274 277 278 278 277 277 277 277 277 276 276 275 274 274 274 274 274 273 272 272 271
259 261 262 263 264 264 265 265 266 267 267 268 268 269 268 268 267 267 270 272 272 271 270 271 271 272 273 274 274 274 275 276 277 278 279 280 281 281 281 282 282 282 282 278 276 275 274 274 273 272 272 271 271 270 269 269 269 269 269 269 268 268 268 270 273 274 274 275 275 274 274 274 273 272 272 272 273 273 273 272 272 271 270 269 267
259 261 262 263 262 262 263 263 264 264 265 266 266 266 266 267 268 268 267 268 269 270 270 269 269 269 270 271 271 272 273 273 274 275 276 278 280 281 281 280 280 280 278 274 274 273 272 271 271 270 270 269 268 268 267 267 266 266 266 266 266 266 267 270 271 271 271 272 272 271 271 272 271 272 272 271 271 271 271 270 270 269 269 268 266
258 260 262 262 261 261 262 262 262 263 264 264 264 265 264 265 267 267 267 267 267 266 265 265 267 268 267 268 269 270 270 271 272 273 273 275 276 276 276 272 271 270 270 270 270 271 270 270 268 268 268 268 267 267 266 265 265 265 265 265 265 265 266 266 266 267 268 268 268 268 269 270 270 270 270 269 270 269 269 269 269 269 267 265 264
256 257 259 260 261 261 261 261 262 262 262 263 265 265 265 264 264 264 265 264 264 263 263 264 265 266 267 267 268 268 269 269 269 270 270 272 274 275 269 268 267 267 266 266 266 266 266 266 266 266 266 265 265 264 265 264 264 264 265 264 264 264 264 264 264 264 264 265 265 265 266 266 266 266 266 266 266 266 266 265 265 265 265 264 264
255 256 256 258 260 261 260 260 258 260 262 263 262 261 262 262 263 262 263 262 262 262 263 263 264 264 266 265 267 266 268 268 268 268 268 269 271 268 267 267 265 265 264 264 264 264 264 264 264 264 264 264 264 264 264 263 263 263 263 263 263 263 263 263 263 264 264 263 264 264 264 265 265 265 265 264 263 263 264 264 263 263 263 263 262
253 254 256 258 260 260 258 257 258 261 259 258 258 259 261 261 261 262 262 261 261 261 261 262 263 261 262 262 266 264 265 266 267 266 265 265 264 264 264 264 264 263 263 262 262 262 262 262 262 262 262 262 262 262 262 262 262 262 262 262 262 262 262 262 262 262 262 263 263 263 263 263 264 264 264 263 262 262 263 263 263 262 262 262 262
251 256 259 260 260 259 256 257 257 256 256 257 256 258 260 260 259 259 258 258 259 259 260 260 260 260 261 263 262 264 264 263 262 261 261 262 262 262 262 262 262 261 261 261 262 261 261 261 261 261 261 261 261 261 261 261 261 261 261 261 261 261 261 261 261 261 261 261 261 261 261 262 262 263 263 262 262 262 262 262 262 262 262 261 261
253 250 255 260 257 258 256 256 255 254 256 256 256 257 258 258 256 256 256 257 257 259 259 259 258 259 261 262 262 263 260 261 260 260 260 260 260 261 261 261 261 261 260 261 261 261 260 260 261 260 261 261 260 260 261 260 260 260 260 260 260 260 260 260 260 260 260 260 260 260 260 260 261 261 261 261 261 261 261 261 260 260 260 259 258
248 251 256 257 258 254 254 254 253 253 253 254 254 254 254 256 256 256 255 256 257 257 258 258 258 259 261 263 264 263 260 259 260 259 259 259 259 259 259 260 260 260 260 260 260 260 260 260 260 260 260 260 260 260 260 260 260 260 260 260 259 259 259 259 259 259 259 259 259 259 260 260 260 260 259 260 260 260 259 259 259 258 258 258 257
248 249 251 252 254 253 253 253 253 255 252 255 254 255 255 255 255 255 256 256 257 257 257 258 258 258 261 263 262 262 259 259 259 259 259 258 258 258 258 258 259 259 259 259 260 259 259 259 259 260 259 260 260 260 260 260 260 260 259 259 259 259 258 258 259 259 259 258 259 259 259 259 259 259 259 259 258 259 258 258 258 258 258 257 257
250 251 251 253 252 252 252 252 252 250 252 252 253 257 256 254 254 255 255 256 256 256 256 256 256 257 258 261 261 261 258 258 258 258 258 258 257 257 257 257 258 258 258 259 259 259 259 259 259 259 259 259 259 259 260 260 260 259 259 259 258 258 258 258 258 258 258 258 258 258 258 258 258 258 258 258 258 258 257 257 257 257 257 257 256
250 251 252 253 252 251 252 251 251 252 252 254 255 254 254 253 253 253 253 254 255 255 255 255 255 255 256 258 258 258 257 257 257 257 257 257 257 257 257 257 257 257 257 258 259 259 258 258 258 258 258 258 258 258 259 259 260 259 259 258 258 258 258 257 257 257 257 257 257 257 257 257 257 257 257 257 257 256 256 256 256 256 256 256 256
247 250 251 249 250 250 249 250 251 251 253 252 251 251 253 252 252 253 253 252 254 254 254 254 254 254 255 256 256 256 256 256 256 256 256 256 255 255 256 256 256 256 257 257 258 258 258 258 257 257 257 257 257 257 258 258 258 258 259 258 257 257 257 257 257 258 258 257 256 256 256 256 256 256 256 256 256 256 256 255 255 255 255 255 255
249 250 251 251 251 251 251 247 252 250 250 250 249 249 249 249 250 252 252 253 253 252 252 253 253 254 254 253 254 255 255 255 255 255 255 255 255 255 255 255 255 255 255 255 256 256 257 257 257 256 256 256 256 256 256 256 256 257 258 258 258 258 258 258 258 257 257 257 256 256 256 256 256 255 255 255 255 256 255 255 255 255 255 255 254
248 249 250 251 250 251 251 252 250 249 249 249 250 250 249 249 249 251 252 253 252 253 251 251 251 251 252 252 253 253 254 253 254 254 254 254 254 254 254 254 254 254 254 254 254 255 255 255 255 255 255 255 255 254 254 255 255 255 255 256 256 256 257 257 257 257 257 257 256 256 255 255 255 254 254 254 254 254 254 254 254 254 254 254 253
248 249 249 250 249 249 248 248 249 253 250 249 249 250 250 250 250 250 249 249 250 250 250 250 250 251 252 251 252 252 252 252 253 253 253 253 253 253 253 253 253 253 253 252 252 252 253 253 254 254 254 254 253 253 253 253 253 253 254 254 254 255 255 255 255 255 256 256 255 255 255 255 254 254 254 254 253 254 253 253 253 253 253 252 252
248 248 248 249 249 249 249 249 250 248 247 247 248 249 249 248 248 247 248 248 248 249 249 249 249 249 250 251 251 252 252 252 252 252 252 252 252 252 252 252 252 252 252 251 251 251 252 252 252 252 252 253 253 252 252 252 252 252 253 253 255 255 254 254 253 254 254 254 254 254 254 254 253 253 253 253 252 253 252 252 252 251 251 251 251
250 250 250 250 250 249 248 248 247 246 246 247 246 247 248 248 247 248 247 247 247 247 246 247 248 248 248 249 250 250 251 252 252 252 252 252 252 252 252 252 252 252 252 252 251 251 251 250 250 251 251 251 251 251 251 251 251 252 251 253 255 254 254 253 253 252 253 253 253 253 253 253 252 252 252 252 252 252 251 251 251 250 250 250 250
251 250 250 250 250 249 248 247 247 246 246 246 246 246 247 247 248 247 247 247 248 248 248 246 246 246 246 247 249 248 249 250 250 251 251 252 251 251 251 251 251 251 251 251 251 250 250 250 250 250 250 250 250 250 250 250 249 250 253 255 255 254 253 252 251 251 251 251 251 252 251 251 250 250 250 250 250 250 249 249 249 249 249 249 249
Wind_Speed
3 4 3 3 3 4 4 3 3 3 3 4 5 6 5 6 6 6 4 6 6 6 7 7 7 8 7 7 8 7 7 7 7 7 8 8 8 7 6 8 9 8 7 8 7 7 9 10 9 9 7 8 8 7 7 8 7 7 7 7 8 6 7 7 8 6 1 0 2 4 3 5 4 5 7 6 4 3 2 2 4 4 3 2 1
4 4 2 2 2 3 4 3 2 2 4 4 5 5 5 5 5 4 5 6 6 7 7 7 7 7 7 7 7 7 7 7 7 7 8 8 8 6 7 8 8 9 7 9 8 7 8 10 9 8 8 10 8 9 9 8 8 8 7 8 8 8 7 8 8 7 7 0 1 1 3 3 6 4 8 8 5 3 4 3 2 2 5 3 2
3 3 3 3 2 1 1 2 2 3 5 5 5 5 4 4 4 5 6 5 5 6 7 7 7 7 7 7 7 7 8 8 7 8 9 9 9 8 7 8 9 9 9 10 9 8 8 9 9 7 6 8 8 8 7 9 8 9 9 8 9 8 8 6 6 6 6 5 2 4 4 4 6 6 4 4 4 4 5 4 4 2 1 2 3
4 3 2 3 3 1 2 1 2 3 4 3 3 3 3 3 3 4 4 4 6 6 5 6 6 7 7 7 7 8 7 7 7 8 9 9 9 9 8 8 8 9 9 9 8 8 10 9 9 8 8 10 9 8 8 8 9 9 8 8 8 8 8 6 6 6 5 7 4 6 4 6 3 1 3 2 5 4 4 2 1 2 1 1 1
3 2 2 2 2 3 3 3 3 4 4 3 3 2 2 3 3 4 4 5 5 5 5 5 6 7 8 8 8 8 9 9 9 8 8 8 8 8 8 8 8 9 9 9 9 9 9 10 9 8 8 10 8 8 8 9 8 8 9 8 8 7 6 7 6 5 6 8 5 2 2 2 0 1 5 7 2 2 2 2 2 3 2 1 1
6 1 0 1 2 2 3 2 4 4 4 4 5 4 4 4 4 4 4 5 4 5 6 6 7 8 7 7 8 8 8 8 9 9 9 8 7 7 7 8 8 8 9 9 9 9 10 10 9 9 9 11 10 8 8 10 8 8 8 7 7 6 7 6 5 5 7 7 8 4 2 5 2 1 4 5 8 4 2 2 2 1 3 3 1
8 8 7 7 7 7 6 4 3 3 4 4 4 3 4 4 4 5 5 5 5 5 5 5 6 6 7 6 7 7 7 7 8 8 7 7 8 8 8 8 8 8 8 9 8 9 9 9 9 9 10 10 10 10 9 9 9 9 9 9 8 7 7 7 6 6 6 6 3 4 6 4 3 5 1 2 3 4 8 6 3 1 0 4 3
8 9 9 9 9 9 9 8 7 4 3 3 3 3 3 3 4 4 3 4 4 5 5 6 6 5 6 6 6 6 7 7 7 7 7 8 8 8 8 8 8 8 7 7 8 8 9 9 9 10 10 10 10 9 10 10 8 8 8 7 8 8 8 7 6 6 6 6 7 7 4 6 2 2 3 4 4 0 4 5 10 6 5 3 2
8 8 8 9 9 9 9 8 8 9 8 7 4 3 3 3 3 3 3 4 4 5 4 5 5 5 5 5 6 6 7 8 7 7 8 8 7 8 8 8 8 8 7 7 7 8 7 8 8 8 10 12 14 13 12 12 10 10 8 8 8 9 8 7 8 7 6 7 6 3 5 5 5 7 6 6 10 13 7 3 4 4 4 4 1
8 8 9 8 7 8 8 8 9 9 10 9 8 7 6 4 3 3 3 4 4 4 4 5 5 6 6 6 6 6 7 6 8 12 11 8 8 7 7 8 8 8 8 8 7 7 8 7 8 13 14 15 15 15 15 15 15 13 11 10 10 9 9 9 9 8 8 9 9 8 8 9 9 9 10 10 7 4 5 5 7 4 4 2 1
8 8 8 8 8 8 8 9 8 9 8 8 8 9 8 7 6 4 4 3 3 3 3 4 5 5 6 6 7 7 7 6 10 12 13 13 9 7 8 8 8 8 8 9 9 9 8 7 7 9 11 12 12 15 15 16 16 16 14 16 15 14 11 11 10 9 10 10 7 8 10 11 10 9 10 8 5 9 8 9 7 6 8 8 8
9 9 9 8 8 9 8 9 10 9 8 9 8 8 7 8 8 7 6 6 5 3 2 3 3 4 4 4 6 6 6 7 11 11 13 13 12 8 7 7 8 8 8 9 9 8 8 8 7 7 7 9 9 10 12 15 16 17 16 16 17 18 17 16 12 9 10 9 8 11 10 11 11 8 8 6 7 5 5 8 8 10 8 9 6
8 8 7 7 8 8 6 6 7 7 8 8 7 8 8 9 9 9 8 6 4 4 3 2 3 3 3 4 5 5 4 7 9 10 11 12 14 11 7 8 8 9 9 9 8 8 7 7 7 7 7 12 11 8 9 10 13 16 16 16 17 19 18 17 17 16 13 12 13 12 13 11 9 11 11 11 8 11 6 5 6 7 8 9 9
7 7 7 7 7 6 6 6 6 6 5 6 6 7 8 8 7 6 7 8 7 6 4 4 3 2 3 3 4 4 4 6 7 9 10 12 13 12 7 7 8 8 8 8 8 8 8 8 8 8 6 6 7 9 8 8 8 8 9 8 9 12 16 18 17 17 14 14 13 14 12 7 12 11 11 9 12 12 10 10 7 7 10 11 5
7 8 7 7 6 7 7 6 6 6 6 5 6 6 6 6 6 7 6 6 7 7 5 4 4 3 3 2 3 4 3 9 8 8 9 10 12 11 7 6 6 7 7 7 8 8 8 8 8 8 7 7 8 10 9 9 8 9 9 10 10 9 10 10 11 10 9 8 10 12 11 11 12 8 9 11 14 13 14 13 15 11 4 4 6
8 7 8 7 6 6 6 6 6 6 6 6 6 6 6 7 6 6 6 6 5 5 6 5 7 6 5 4 3 3 4 10 9 9 7 6 8 6 5 6 7 7 7 7 6 6 6 7 7 7 7 7 10 14 13 9 9 9 10 10 9 8 9 11 14 14 13 12 11 11 10 11 13 9 11 12 8 5 6 8 7 6 7 6 6
8 8 9 9 7 7 7 6 6 5 5 5 6 6 6 6 6 5 6 6 6 6 5 4 4 5 6 7 6 5 5 7 8 9 7 4 1 3 4 4 5 6 7 6 6 5 6 6 6 7 7 8 11 13 14 12 8 10 10 10 10 8 10 8 11 12 12 11 11 11 9 10 13 11 13 17 12 9 8 7 7 8 8 8 5
8 8 8 9 7 7 7 7 8 7 7 6 6 5 4 4 4 4 4 4 6 6 5 5 5 5 5 5 4 4 4 5 8 8 8 8 5 1 1 3 4 5 6 5 4 4 5 9 9 7 8 8 11 13 14 12 9 9 9 10 9 9 10 7 6 6 6 8 9 10 10 10 12 14 15 16 16 12 12 13 10 10 9 10 10
9 8 8 8 7 7 6 6 5 6 7 6 5 6 6 6 5 5 4 3 4 3 4 4 4 4 4 3 4 5 4 5 8 10 9 7 4 3 2 0 3 5 4 5 4 4 5 6 9 10 9 9 12 12 14 12 9 9 10 9 10 11 12 9 9 7 6 5 6 5 5 7 7 7 9 16 18 16 12 12 9 12 11 10 7
9 8 7 8 7 8 7 8 7 6 7 6 5 4 3 2 4 4 4 3 3 3 4 3 4 4 4 4 4 4 4 4 6 11 11 11 9 4 0 1 3 4 3 4 5 5 5 5 6 9 12 12 11 12 13 15 11 9 8 9 10 13 7 8 8 9 10 11 10 9 10 7 6 6 6 9 12 13 13 9 11 12 11 10 10
9 9 8 8 8 9 8 8 9 8 7 7 6 6 4 5 4 4 3 3 3 3 3 3 3 4 4 4 3 3 3 5 6 9 9 10 11 8 4 3 4 4 4 5 5 6 6 5 5 7 11 12 12 11 12 14 14 10 9 10 11 11 7 7 9 11 8 6 6 7 7 6 6 6 7 8 9 9 9 7 8 11 10 10 10
9 8 7 6 6 7 8 7 6 6 7 7 7 7 7 6 5 5 4 3 3 2 2 2 3 3 3 3 3 3 4 4 4 6 9 9 9 8 4 5 4 4 5 6 5 5 5 5 5 6 10 12 12 11 12 12 15 10 10 12 14 9 8 7 7 7 6 6 6 6 6 6 6 6 7 8 8 8 8 5 4 3 1 3 11
11 10 9 8 8 8 8 9 7 6 7 7 7 6 6 6 6 5 5 4 4 3 2 3 3 4 4 4 3 4 4 4 5 6 8 9 9 9 8 6 7 5 5 6 5 4 4 4 4 5 7 10 11 11 11 12 11 9 12 12 11 9 8 5 6 7 7 7 7 8 7 7 7 7 7 7 4 3 4 3 3 4 5 7 8
11 10 9 9 9 9 9 9 9 8 8 8 7 6 6 6 5 4 5 4 4 4 4 3 4 4 5 6 5 4 4 4 5 7 7 9 10 9 8 7 7 5 5 5 4 4 3 3 5 8 8 9 10 10 11 11 8 11 13 13 10 9 6 5 6 7 7 8 9 8 8 7 7 7 7 6 6 5 6 5 6 6 7 7 8
7 6 6 6 6 5 2 2 4 5 6 6 7 6 7 6 5 6 5 4 4 4 4 3 4 4 5 5 6 6 5 5 5 6 9 9 10 11 10 7 7 7 5 4 5 4 4 5 5 5 6 6 7 7 7 9 11 11 13 12 10 6 6 6 7 7 8 9 9 8 8 8 7 6 7 8 7 7 8 7 7 8 9 10 9
5 6 6 5 5 6 3 4 4 5 4 2 3 3 3 4 3 4 5 5 5 4 4 4 4 4 5 5 5 5 5 5 6 6 6 6 6 8 10 7 2 3 2 2 3 4 4 3 3 3 3 3 2 2 2 2 5 10 12 11 7 7 7 7 7 8 9 8 8 9 7 6 5 7 8 8 9 8 9 8 9 7 7 8 9
6 7 8 7 7 7 7 6 6 5 5 4 4 3 4 4 4 3 2 3 4 4 4 4 4 4 5 5 5 6 6 5 5 5 5 5 5 5 5 4 3 3 3 3 4 4 5 5 5 6 6 7 7 5 5 5 3 3 3 5 6 6 7 8 9 9 8 7 7 5 5 6 6 8 8 8 8 6 6 9 9 8 7 7 9
9 9 9 8 8 8 8 11 10 6 5 5 4 3 3 3 4 4 4 5 5 4 4 5 5 5 5 5 5 5 6 5 5 5 5 5 6 6 5 3 2 1 1 2 3 3 4 4 5 4 3 3 4 4 4 4 3 3 3 2 3 3 5 8 7 7 6 5 5 6 6 7 8 7 7 7 7 7 6 7 9 8 7 9 8
10 10 9 8 8 8 8 8 8 7 6 5 4 2 1 2 3 4 4 4 5 5 5 4 6 7 7 7 6 6 5 6 6 3 5 6 6 6 5 4 2 1 2 5 4 3 4 3 3 3 2 1 1 2 2 3 2 3 3 2 2 2 3 5 7 6 5 7 8 9 9 8 7 6 7 7 7 7 5 6 6 10 6 4 9
11 10 10 9 9 8 8 8 8 7 7 6 6 4 2 1 3 2 3 7 9 9 8 4 6 6 6 7 6 6 6 6 9 10 9 9 9 9 8 7 5 2 4 7 2 3 2 3 2 3 2 1 1 0 0 1 1 2 3 4 3 2 2 4 4 5 5 7 8 9 9 8 9 8 7 8 7 6 5 7 8 8 9 8 9
6 6 6 6 7 7 7 6 7 6 5 5 5 5 5 4 1 4 5 6 8 9 10 11 13 13 9 5 7 12 12 12 12 10 10 11 11 10 9 8 8 7 8 5 0 3 3 5 4 3 3 2 2 1 1 2 2 1 2 3 3 3 2 1 1 2 4 6 6 6 7 9 10 9 9 8 10 8 6 4 5 6 7 9 10
6 6 6 6 7 7 6 6 7 7 7 7 6 6 5 5 4 0 3 5 7 8 10 11 11 11 12 11 8 5 10 11 11 9 8 9 10 10 10 10 9 10 10 7 2 4 4 5 5 5 4 4 3 3 2 2 2 1 1 2 3 4 4 2 3 1 3 5 6 6 7 7 7 7 7 8 7 7 7 8 6 7 7 7 8
8 8 7 7 7 7 6 6 6 6 6 6 6 6 6 6 6 5 2 0 1 5 8 10 11 10 10 11 11 8 8 10 13 13 11 9 9 7 8 9 9 9 8 4 4 4 3 3 4 4 5 5 4 4 3 3 2 2 2 2 2 2 2 3 3 4 3 3 5 5 5 6 6 5 5 5 7 8 7 7 6 7 9 9 7
8 7 6 6 5 5 5 5 5 6 6 6 6 6 6 6 6 6 6 6 3 0 3 7 11 11 10 11 11 11 10 10 10 11 12 12 8 7 5 3 6 7 5 2 4 3 2 2 2 3 3 4 4 5 4 3 3 2 3 3 2 2 3 3 4 4 4 4 5 4 5 5 5 8 7 6 5 6 7 5 7 9 8 9 11
7 8 10 7 5 5 5 5 5 6 7 6 6 5 5 6 6 5 5 5 5 5 5 5 6 9 8 8 11 12 11 11 11 11 11 9 9 7 7 5 4 5 6 5 4 3 3 3 2 1 1 3 4 4 5 4 4 4 3 3 3 3 3 4 4 4 5 5 6 5 4 5 5 5 7 8 8 7 7 7 6 7 9 8 9
6 5 5 6 4 4 5 5 5 6 6 6 6 6 6 6 6 5 4 2 3 3 4 2 3 5 8 8 11 11 12 11 11 11 11 11 9 6 3 1 2 3 3 5 4 4 4 4 4 3 4 3 2 2 4 4 4 4 3 3 3 3 4 4 4 6 6 6 6 7 7 7 7 7 8 8 8 7 7 8 9 9 8 8 6
4 5 5 5 5 5 5 5 4 4 5 5 6 5 5 5 5 3 4 2 1 1 1 3 4 4 3 4 7 9 10 10 10 10 11 10 10 6 3 3 3 2 3 2 3 3 3 3 3 3 3 3 3 3 3 4 4 4 4 4 4 4 4 4 4 3 4 5 5 5 6 6 6 6 7 7 6 6 6 7 8 7 8 9 9
4 4 4 4 4 4 5 5 6 7 6 5 5 5 4 4 3 3 3 2 1 1 3 3 3 2 4 4 7 5 6 7 7 7 9 9 7 5 3 4 4 4 2 2 2 3 3 3 3 3 3 3 3 3 4 4 4 4 4 4 5 6 7 7 7 7 7 8 8 7 7 7 7 7 7 9 10 9 7 6 8 9 8 8 8
4 6 9 10 7 5 4 5 5 5 4 4 4 4 5 4 3 3 2 1 1 2 2 2 2 3 4 5 5 6 5 4 5 5 5 5 5 5 5 4 3 3 3 2 2 3 3 3 3 3 3 3 4 4 5 4 4 4 4 5 6 5 6 6 7 6 7 6 7 6 8 7 7 6 7 8 9 9 9 8 7 8 8 7 7
6 5 7 9 7 6 5 5 3 3 5 3 5 3 4 4 3 2 2 1 2 2 2 2 2 3 4 4 4 4 3 3 3 3 3 4 4 5 5 4 4 4 3 3 2 2 3 3 3 4 3 3 3 4 4 4 5 5 5 5 4 5 4 4 4 5 6 4 7 5 8 10 10 10 10 9 9 9 9 9 8 7 9 11 9
6 5 6 5 5 3 3 3 3 3 3 4 3 4 3 3 3 3 1 1 1 1 2 3 2 4 4 5 6 4 2 2 2 3 3 3 4 4 4 4 4 4 4 4 3 3 3 3 3 3 3 3 3 5 4 4 4 5 5 5 5 5 4 4 4 5 6 9 9 10 10 11 12 13 12 6 7 9 10 10 11 11 10 8 8
5 4 4 4 3 1 1 3 4 4 3 4 3 3 4 4 2 2 2 1 2 2 2 2 3 4 6 8 6 5 3 2 2 2 3 3 3 3 3 3 4 3 3 3 3 3 3 3 4 4 4 3 4 4 4 3 3 4 5 5 6 6 5 4 4 4 5 5 8 9 8 7 7 8 8 6 12 12 12 12 13 10 10 10 6
4 4 3 3 1 1 2 2 2 3 3 3 3 3 4 2 2 3 2 3 1 2 2 3 4 4 4 7 6 6 4 3 3 3 3 3 3 3 3 3 3 3 4 5 5 4 4 5 4 5 5 5 5 4 4 3 3 3 4 5 5 5 6 6 5 5 4 5 5 7 8 8 8 8 8 8 9 10 9 10 10 12 11 13 14
3 3 3 1 2 1 2 1 1 2 1 2 1 3 2 2 1 2 2 2 2 2 2 2 3 4 4 5 5 4 4 3 3 3 3 3 3 3 3 3 3 4 6 5 5 4 5 4 4 4 4 4 5 7 6 5 4 5 4 4 5 5 5 5 5 5 5 6 6 6 7 9 10 9 8 7 10 11 10 10 10 10 9 9 9
1 1 1 1 1 1 2 1 1 1 2 1 1 1 2 1 1 1 1 1 2 1 1 1 1 2 4 4 4 3 3 3 3 3 3 3 3 3 3 3 4 4 5 5 4 4 4 4 3 3 4 4 5 7 6 5 5 5 4 6 5 4 4 4 4 3 4 6 6 8 9 10 9 7 8 5 6 7 8 9 8 7 8 8 9
1 1 2 1 1 3 2 1 2 1 1 1 0 0 1 0 0 0 1 1 1 0 0 0 1 1 2 1 2 3 3 2 2 3 3 3 2 2 2 2 3 3 3 3 3 4 3 3 3 4 5 4 5 6 5 6 6 5 5 4 4 4 4 4 4 5 5 6 7 5 5 6 6 7 6 8 8 8 7 5 6 7 8 7 7
2 1 1 2 1 4 3 3 1 1 1 1 1 1 1 1 1 1 1 1 1 2 1 1 1 0 0 0 0 1 2 2 2 2 2 2 2 2 2 2 2 2 2 3 3 3 3 3 3 4 4 3 4 5 4 4 4 4 4 4 4 5 4 4 4 4 5 5 5 5 5 5 5 5 5 6 6 7 6 6 6 7 6 6 6
3 3 2 3 2 2 3 1 2 3 2 2 1 2 2 2 1 2 2 2 1 1 1 1 1 1 2 1 1 1 2 2 1 2 1 1 1 1 1 1 2 2 2 2 2 3 3 2 2 3 3 3 3 4 3 3 3 4 4 4 3 4 5 6 5 5 4 5 5 5 6 6 5 5 5 6 5 6 7 6 5 5 5 6 4
4 4 4 3 4 4 5 4 5 3 4 3 1 2 3 1 2 2 1 1 1 1 1 2 2 2 2 2 1 1 2 3 3 3 3 3 3 2 3 2 2 2 1 1 1 1 2 2 2 2 2 2 2 3 3 3 3 3 3 3 6 8 7 7 5 4 6 5 5 5 5 5 6 5 5 5 5 5 5 5 5 6 5 5 5
6 6 5 5 5 6 6 5 4 5 5 3 3 3 2 3 2 3 2 2 2 2 3 2 2 3 3 2 3 2 1 2 2 2 3 3 3 3 3 3 3 3 3 3 2 1 1 1 1 2 2 2 2 2 3 3 2 2 3 3 8 8 7 7 7 7 6 4 5 4 5 5 5 5 4 5 5 5 5 5 5 4 5 6 5
7 6 6 6 7 5 4 5 6 5 5 5 5 5 4 5 6 4 4 4 5 5 4 4 5 3 3 4 4 3 4 4 3 3 3 2 2 2 2 3 3 3 2 2 2 3 2 2 2 2 2 2 2 3 2 2 2 2 4 5 7 7 7 6 5 6 6 5 4 5 5 6 5 6 5 5 5 5 5 6 5 6 5 5 6
Wind_Direction
225 248 264 270 275 261 255 247 238 222 206 199 199 209 205 202 202 201 175 196 185 190 195 196 196 200 197 199 201 200 198 199 195 198 204 210 209 205 195 196 205 212 204 206 204 199 207 210 207 205 186 196 203 197 199 202 199 202 200 199 210 199 176 186 203 235 298 223 180 208 208 149 178 193 175 186 192 208 183 167 151 159 155 184 257
221 218 217 240 249 270 276 268 237 213 211 204 210 207 207 203 202 184 194 202 187 194 197 196 195 196 197 200 201 201 200 199 194 196 206 209 212 204 200 198 208 212 203 211 201 202 205 211 213 198 189 202 198 200 197 193 195 196 199 195 205 202 200 176 206 184 219 288 177 5 170 203 180 203 181 179 198 173 179 175 182 180 173 170 179
265 214 194 195 229 254 297 284 279 238 216 213 210 208 207 208 191 192 201 199 199 199 197 194 195 193 197 199 198 202 202 201 196 198 206 206 209 208 202 200 207 210 210 213 204 198 204 211 213 193 185 201 205 204 192 195 191 195 201 196 203 203 199 198 158 194 184 222 182 170 194 200 188 200 215 194 161 165 171 194 188 177 139 159 172
269 243 230 216 192 188 233 259 265 258 250 258 247 237 207 193 175 187 199 186 193 205 193 195 192 192 197 199 198 200 201 200 201 205 208 207 211 210 204 204 206 212 213 212 205 198 206 209 213 192 187 199 201 198 198 193 188 197 198 199 200 199 196 194 193 160 179 168 222 188 197 170 238 133 132 112 147 164 175 130 61 137 139 96 114
286 225 218 228 219 200 218 210 220 241 244 258 260 254 244 223 188 188 175 181 196 187 195 186 193 194 200 201 199 201 201 198 202 206 208 209 211 211 209 207 210 213 214 212 207 203 206 210 208 193 189 201 201 198 191 194 195 191 196 191 194 193 186 190 189 151 148 180 181 225 174 139 46 158 162 147 105 90 69 120 153 152 126 54 60
348 338 149 181 228 225 234 219 224 227 224 228 227 225 221 213 216 215 191 195 190 189 184 191 193 201 205 205 202 203 201 201 204 204 204 205 208 210 210 209 211 212 215 215 211 207 208 210 206 196 196 201 202 197 192 197 191 196 195 188 190 177 183 193 177 161 160 175 161 153 204 176 180 156 202 161 150 137 106 67 79 79 133 127 60
10 27 23 27 16 1 343 313 284 251 235 233 231 225 222 222 213 221 208 202 195 195 199 195 205 201 208 203 204 203 204 204 206 206 204 204 206 207 211 212 211 212 215 214 213 211 210 209 206 202 203 204 200 195 193 197 194 198 195 189 185 178 185 188 178 168 167 155 177 188 171 217 158 168 150 153 140 144 157 141 185 269 85 157 159
34 34 31 30 24 6 3 357 355 337 312 299 272 253 247 236 230 235 211 215 213 209 203 205 210 205 209 206 207 200 204 207 208 207 205 204 205 210 210 211 214 215 215 214 213 213 212 210 208 205 206 205 202 197 190 197 192 201 198 184 180 181 188 180 179 174 163 171 175 181 191 176 153 58 79 98 134 214 210 169 185 186 205 209 189
42 42 38 32 16 7 1 1 2 5 6 12 3 330 285 260 249 240 225 226 218 216 213 206 206 213 217 210 209 205 208 211 206 203 203 207 207 211 210 212 213 215 216 216 215 215 214 213 212 211 209 209 204 200 197 193 187 199 195 183 182 186 186 183 186 180 182 174 194 160 164 185 196 156 153 177 190 195 185 146 170 177 164 165 241
39 43 45 34 18 13 9 9 7 6 10 7 0 355 351 331 308 271 248 233 227 221 214 214 209 211 209 212 211 210 216 217 208 203 201 201 202 206 208 213 212 214 214 217 222 219 217 213 215 211 209 210 209 207 202 202 201 200 187 184 184 186 188 186 189 190 180 186 195 171 185 205 191 195 184 202 184 92 118 162 167 165 114 155 327
37 39 43 37 32 26 24 17 11 14 5 5 2 2 356 352 10 5 345 330 303 286 240 225 225 218 213 211 214 218 221 220 210 206 209 206 200 203 206 210 209 212 214 213 219 217 221 219 218 214 213 214 215 211 205 204 206 209 199 192 189 185 186 191 197 186 187 199 189 184 198 201 206 194 202 185 175 178 175 179 163 145 169 162 203
42 43 42 40 38 38 37 30 27 18 13 9 4 359 0 12 14 5 2 360 340 347 305 263 264 245 234 232 227 227 230 227 216 214 212 210 205 205 206 209 208 212 214 215 218 213 215 217 218 212 209 210 207 211 213 210 208 209 206 197 201 203 195 188 189 191 195 196 188 205 195 207 197 184 201 163 185 171 182 171 173 176 172 191 189
42 43 36 39 36 40 34 35 33 28 20 10 6 9 11 13 11 5 355 332 328 349 314 322 290 307 293 262 253 251 252 247 236 225 219 215 213 209 212 211 208 215 216 216 215 213 212 214 219 217 217 210 208 207 204 212 215 213 211 206 205 205 210 210 200 192 188 197 201 206 204 197 186 207 196 188 166 180 162 174 185 182 191 191 207
45 36 28 32 26 28 27 33 39 36 31 25 17 18 18 12 2 0 352 356 358 345 346 340 321 312 277 259 266 285 273 287 267 243 229 221 218 211 218 212 215 218 218 216 215 214 211 210 213 221 222 211 205 205 203 204 202 209 216 216 217 221 218 213 212 210 199 199 199 211 213 185 203 202 195 166 162 184 172 195 180 181 193 208 187
45 38 27 20 17 17 19 23 30 28 25 29 30 28 23 10 12 5 356 352 350 340 335 347 345 338 338 320 308 296 326 5 348 317 282 245 227 213 221 219 221 226 225 221 219 215 213 211 212 218 214 211 208 200 199 199 196 202 206 212 217 213 210 216 217 213 209 215 213 216 207 197 211 197 173 183 191 189 185 189 184 185 146 71 58
45 37 29 15 12 8 5 7 17 19 23 27 31 29 23 16 2 0 354 346 353 2 7 22 8 7 11 19 41 14 25 24 12 0 340 310 271 241 229 223 225 228 230 229 226 222 218 210 213 221 216 215 219 207 202 194 193 199 205 213 218 218 221 220 213 207 206 206 209 211 210 197 202 185 175 183 186 126 86 72 86 105 137 148 163
36 32 30 20 12 8 5 360 359 4 17 27 27 21 16 15 2 360 1 355 354 7 2 15 16 25 23 24 24 30 32 18 15 15 11 2 309 225 243 252 247 240 239 235 230 225 220 213 212 217 219 222 221 211 209 192 198 203 208 212 212 211 226 227 228 226 227 228 229 229 218 199 200 184 180 182 175 152 119 119 173 154 145 170 199
21 22 23 20 6 5 4 1 2 354 5 19 19 15 14 21 16 5 13 5 6 355 347 8 16 24 32 33 20 17 7 2 13 15 19 29 60 92 220 234 253 253 262 258 248 243 234 227 217 217 219 227 222 212 209 195 204 207 210 211 212 217 229 218 216 230 233 233 231 230 220 202 199 188 183 182 171 159 160 190 183 157 182 187 188
8 1 7 13 6 5 3 360 7 360 3 3 355 5 7 5 1 2 14 19 17 344 348 2 3 9 9 16 26 30 1 353 358 358 356 5 31 62 71 238 258 258 264 279 277 253 257 242 230 224 224 228 224 213 206 195 205 208 209 208 217 220 222 197 200 199 206 208 228 216 231 212 200 186 190 185 178 183 193 194 152 175 185 193 161
352 346 359 8 4 1 1 357 357 1 1 350 342 344 354 3 21 18 12 22 12 12 360 2 4 357 351 359 8 16 8 350 350 353 349 345 340 339 145 243 264 269 270 261 275 269 250 253 242 235 235 238 234 221 211 198 203 210 203 208 215 229 209 194 199 196 203 202 205 199 207 194 193 189 186 188 189 193 199 185 175 182 188 180 178
342 339 358 4 3 1 358 359 355 354 353 343 339 342 357 357 6 33 41 36 47 34 13 355 358 345 349 350 351 6 9 340 336 347 345 343 336 338 301 260 248 253 262 256 242 251 251 238 237 229 228 232 234 229 218 210 210 208 204 213 212 222 168 186 195 202 200 196 190 189 191 179 189 185 187 189 193 201 205 197 190 191 183 178 179
336 336 352 2 0 5 359 352 353 353 348 345 337 341 350 353 360 7 23 47 46 50 25 358 341 327 323 331 338 333 340 343 329 334 340 337 331 317 300 272 252 252 256 248 244 240 234 235 236 225 222 223 225 223 221 219 217 216 220 222 225 199 166 190 174 174 182 172 172 174 175 176 179 185 190 193 197 194 194 185 177 183 303 214 189
336 339 349 354 359 3 4 355 0 359 352 346 340 338 343 350 353 2 10 13 20 12 5 350 337 323 316 317 324 323 319 319 330 326 330 331 330 325 296 264 252 242 249 265 257 256 237 234 235 235 224 220 218 215 215 218 219 221 227 227 228 184 165 157 165 170 175 178 175 185 182 180 179 186 182 182 162 134 112 95 84 98 85 61 39
333 339 346 346 348 353 360 355 358 358 355 346 339 340 343 342 347 7 5 10 3 351 343 339 331 325 325 319 318 321 324 323 322 323 324 323 327 326 318 285 252 233 234 253 261 247 246 239 233 227 225 217 210 208 209 209 209 218 221 224 202 173 168 163 170 183 179 184 189 187 188 185 179 172 178 156 140 122 104 92 80 82 91 73 58
314 319 325 319 308 306 313 347 1 355 353 354 348 340 343 347 346 354 358 1 8 353 333 339 322 314 315 310 309 314 325 326 319 323 325 324 327 335 331 308 272 244 234 244 249 245 254 260 257 260 257 258 250 228 219 217 215 216 216 212 187 175 177 177 182 180 194 196 196 193 187 185 176 162 131 125 115 105 101 84 83 87 92 86 78
319 330 323 313 314 315 337 3 9 9 359 360 346 333 328 335 338 346 352 354 352 346 335 331 313 312 300 298 298 299 315 316 318 321 322 326 325 333 339 343 23 96 132 115 93 73 56 53 35 6 351 347 313 296 251 285 248 226 217 205 187 189 182 184 188 192 203 197 196 195 179 140 121 125 126 130 137 145 138 131 125 121 122 116 92
342 340 338 337 341 340 3 351 354 353 355 358 356 345 353 347 344 344 8 5 351 337 334 320 306 299 290 295 300 306 303 305 308 307 309 320 320 323 336 341 15 71 75 52 58 54 54 55 68 61 59 49 48 37 32 3 352 316 262 210 200 195 195 193 193 197 199 195 194 165 131 128 113 124 145 151 145 150 151 144 136 140 130 118 108
356 345 337 343 346 347 352 347 348 343 347 349 348 349 351 353 347 350 353 349 347 337 337 328 321 311 297 292 295 294 289 293 289 291 302 313 310 312 316 327 334 338 101 71 79 76 83 71 62 49 46 48 36 31 26 24 10 356 345 322 265 232 213 211 211 208 201 179 141 121 126 137 150 152 148 153 149 151 159 149 142 139 144 131 104
348 344 341 345 346 346 348 341 341 335 332 334 330 325 305 357 346 343 351 2 355 336 319 318 313 311 307 304 297 285 284 278 279 297 279 283 291 301 303 302 305 307 187 144 105 79 79 72 65 48 42 68 42 33 19 8 12 5 350 348 345 293 213 187 198 194 160 140 153 157 156 156 152 151 150 144 155 155 153 134 141 140 146 125 135
342 342 341 340 338 340 340 338 329 327 325 329 326 326 312 12 12 14 332 0 4 7 14 360 344 323 306 299 289 283 281 289 308 300 285 285 283 274 273 276 268 245 178 172 148 128 140 120 119 112 103 94 82 51 16 14 5 3 355 354 350 335 273 226 186 158 158 165 159 160 163 159 152 159 160 153 137 140 154 155 153 154 143 141 133
316 314 322 321 321 323 324 322 314 311 322 322 318 314 316 317 328 30 33 26 22 19 23 19 15 11 8 323 302 300 296 296 296 289 290 293 289 282 269 256 245 219 187 147 82 190 172 168 161 129 115 98 94 80 52 45 24 17 3 1 353 355 350 15 25 131 151 150 150 157 159 162 163 163 162 159 148 142 136 120 128 137 139 140 133
304 306 311 310 317 319 318 320 321 327 331 326 328 326 322 314 312 267 71 34 31 32 28 24 18 14 13 14 9 327 334 336 331 313 302 298 298 292 279 261 240 217 205 204 196 220 198 185 176 167 153 132 130 100 84 81 55 56 33 33 12 4 3 19 346 51 138 141 148 150 157 160 157 155 150 147 145 144 144 140 136 127 114 109 121
306 308 312 319 323 327 327 326 320 319 316 319 331 330 331 326 325 313 310 159 47 36 32 25 17 9 13 13 14 11 2 359 4 4 349 313 295 294 280 266 247 222 211 221 239 224 216 209 187 171 157 156 143 133 117 95 91 70 53 72 66 19 15 335 5 57 56 92 116 125 120 119 120 117 120 132 140 141 138 128 118 109 119 116 108
286 289 295 304 309 304 303 303 311 312 315 321 324 332 325 323 316 311 315 317 307 301 48 23 12 8 1 8 9 7 5 7 6 9 11 11 341 299 302 347 21 6 6 330 315 284 275 211 202 178 151 134 131 129 122 117 102 104 86 82 80 50 27 13 68 67 81 78 93 97 103 112 126 132 128 116 100 108 115 117 119 121 122 124 125
287 295 299 309 300 301 306 313 318 319 324 324 320 319 315 314 312 308 304 305 306 310 311 336 355 10 4 359 5 5 8 4 8 7 10 15 24 29 38 28 5 354 13 10 12 5 346 327 328 325 167 150 142 134 129 122 119 116 121 113 96 73 57 61 70 80 86 89 84 86 96 106 109 109 126 132 133 126 120 119 112 112 121 108 112
278 276 289 296 301 305 319 323 322 321 313 308 313 317 316 311 308 300 301 295 288 291 300 322 331 322 346 359 2 1 6 8 11 12 10 11 12 32 67 30 64 23 28 12 21 13 28 19 20 9 7 21 33 77 108 114 113 109 106 111 100 93 84 84 69 71 59 77 86 91 91 81 82 93 78 68 90 103 106 98 82 91 110 111 112
284 286 293 294 304 321 324 324 309 305 307 316 314 314 307 309 306 312 316 312 308 306 324 317 336 332 335 344 360 350 349 360 6 16 14 16 27 45 68 72 112 100 80 46 42 26 32 17 28 29 32 36 30 38 54 81 73 88 89 81 88 78 66 81 91 95 87 90 89 94 100 106 107 106 109 105 101 93 98 99 98 101 107 117 115
272 281 278 301 315 330 325 325 326 333 330 316 317 308 309 307 316 320 326 322 314 3 354 345 356 347 336 312 350 346 325 334 343 7 10 7 10 11 22 47 60 99 103 79 78 99 94 51 43 48 35 58 67 68 72 74 73 77 85 86 82 86 95 90 83 85 89 96 98 102 101 102 103 107 108 111 115 111 107 109 115 114 110 114 114
310 318 332 343 350 341 332 334 333 333 322 322 322 331 330 334 341 349 345 7 19 21 13 11 355 342 329 326 337 319 350 3 15 7 6 5 8 2 359 12 27 43 44 45 41 65 87 87 83 80 70 75 91 78 84 83 75 71 71 82 89 82 81 83 86 87 75 78 65 59 81 86 79 90 106 114 113 111 109 110 112 118 124 117 96
329 329 328 342 341 339 337 326 324 325 320 336 337 346 357 357 349 351 353 25 11 18 23 10 357 340 329 348 322 341 28 6 29 355 5 4 12 4 10 13 14 21 22 26 40 55 68 70 87 97 84 78 80 96 82 83 91 84 77 62 68 76 65 62 74 75 80 73 71 61 59 63 67 71 62 69 77 83 109 115 110 108 105 102 93
307 306 310 311 316 326 317 318 327 328 333 338 341 1 355 351 353 352 14 18 29 32 24 13 357 329 340 355 354 28 87 52 23 25 13 22 20 22 18 19 22 31 35 30 37 23 34 56 62 64 73 73 77 98 96 96 97 98 96 92 79 72 67 55 59 73 85 81 78 84 79 72 62 56 81 80 99 96 81 90 91 84 97 100 107
273 274 266 266 285 292 316 329 331 336 342 348 358 359 357 357 350 6 7 23 29 37 19 1 352 342 350 8 20 43 74 62 62 44 50 38 34 30 28 25 28 26 29 30 34 36 38 41 44 45 53 52 57 65 80 67 87 99 107 105 105 100 89 75 58 50 59 80 76 69 75 91 95 84 93 105 92 94 92 93 97 106 108 105 102
247 250 250 268 297 314 322 318 333 349 349 357 346 357 5 12 12 7 12 14 35 28 23 4 349 355 354 1 23 30 36 29 53 45 50 48 41 32 24 34 30 18 14 35 40 50 54 71 54 43 34 28 32 24 50 40 46 52 65 74 90 99 108 109 97 81 59 62 65 76 66 66 78 79 76 73 73 64 60 94 88 74 100 107 103
252 264 281 294 307 326 321 328 331 311 305 322 348 348 10 13 31 33 35 29 30 33 26 6 360 358 347 358 13 27 23 29 30 34 35 39 42 34 28 30 35 32 4 17 35 74 79 57 77 63 50 34 37 30 24 36 69 39 46 84 95 93 81 83 101 112 115 103 92 80 74 71 60 67 84 95 73 81 78 77 84 68 86 81 88
244 273 286 325 308 323 311 316 286 294 303 342 348 336 355 31 31 50 70 58 42 51 28 21 7 13 1 6 16 25 19 22 27 37 33 36 38 32 21 26 29 30 12 15 30 58 81 59 56 66 69 47 44 27 34 41 51 37 77 81 80 98 96 80 74 81 85 97 108 105 105 93 95 93 91 98 105 103 93 88 109 120 110 103 102
232 235 243 234 287 284 283 296 291 313 305 303 312 319 326 348 355 46 134 128 131 132 76 51 41 42 37 7 9 25 20 30 25 32 41 38 42 34 35 32 37 40 31 32 29 47 55 70 78 83 86 64 39 29 53 44 50 51 61 49 76 89 92 87 94 98 89 99 91 88 112 111 104 107 114 106 104 102 107 114 102 99 125 134 126
222 219 223 227 232 249 248 251 278 277 288 295 268 281 288 293 305 313 306 232 203 188 181 216 138 158 147 109 61 23 35 55 27 40 33 39 33 33 31 39 33 37 30 31 33 41 59 69 80 91 94 85 80 69 67 58 58 58 62 62 77 89 89 94 94 98 98 108 115 113 103 97 111 111 108 113 110 119 125 130 137 139 136 135 139
221 223 228 226 220 232 249 238 249 256 248 246 255 251 257 264 288 285 285 306 310 294 281 276 239 231 191 210 188 170 156 142 127 124 97 100 79 58 59 50 50 29 37 23 23 26 34 47 66 84 93 89 87 82 74 67 62 64 61 65 71 88 99 103 98 98 100 106 107 118 123 127 126 126 128 129 132 136 132 135 129 123 130 128 131
227 222 227 226 224 227 227 232 229 230 230 231 235 254 255 253 246 251 256 253 255 261 260 271 287 301 292 278 256 229 199 172 171 170 170 174 163 165 154 145 129 110 96 70 39 41 41 46 53 65 78 79 81 90 90 89 86 78 82 78 96 98 97 100 101 108 110 108 107 108 111 118 126 131 131 129 133 130 127 124 127 131 123 124 132
230 228 227 229 226 234 230 224 229 229 230 221 218 240 250 245 254 250 247 245 249 258 254 239 245 245 238 254 254 255 267 251 244 233 213 200 189 184 177 176 176 174 174 180 173 136 96 88 88 94 96 102 99 96 98 97 101 95 85 98 105 99 95 93 103 111 111 113 115 120 122 123 121 126 129 132 130 131 132 139 134 135 138 141 148
235 233 232 229 233 233 224 225 236 235 229 230 230 234 240 238 241 242 239 236 240 242 238 234 235 239 235 230 226 226 226 230 235 236 235 232 221 209 205 204 204 204 198 182 182 178 177 154 144 134 122 121 120 120 110 114 110 142 147 136 123 108 101 95 98 105 108 110 116 117 121 129 131 129 130 127 129 133 144 138 139 147 153 154 152